Regional Weather Roundup
Issued by NWS

Home | Current Version | Previous Version | Graphics & Text | Print | Product List | Glossary On
Versions: 1 2 3 4 5 6 7 8 9 10 11 12 13 14 15 16 17 18 19 20 21 22 23 24 25 26 27 28 29 30 31 32 33 34 35 36 37 38 39 40 41 42 43 44 45 46 47 48 49 50
662
ASUS43 KMPX 311601
RWRMN
WEATHER ROUNDUP FOR MINNESOTA
NATIONAL WEATHER SERVICE TWIN CITIES/CHANHASSEN MN
1100 AM CDT TUE MAY 31 2016


NOTE: "FAIR" INDICATES FEW OR NO CLOUDS BELOW 12,000 FEET WITH NO
SIGNIFICANT WEATHER AND/OR OBSTRUCTIONS TO VISIBILITY. N/A MEANS
CURRENT SKY AND/OR WEATHER CONDITIONS ARE NOT AVAILABLE.

MNZ060>063-068>070-311700-
   Twin Cities Metro

CITY           SKY/WX    TMP DP  RH WIND       PRES   REMARKS
TWIN CITIES    CLOUDY    68  61  78 S7        29.87F
ST PAUL        CLOUDY    68  62  81 S9        29.87F
CRYSTAL        CLOUDY    67  60  78 S9        29.85F
BLAINE         CLOUDY    68  64  88 S9        29.86F
EDEN PRAIRIE   LGT RAIN  66  62  87 SW10      29.86F
SOUTH ST PAUL  CLOUDY    67  63  86 S9        29.88S
LAKE ELMO      CLOUDY    68  63  83 S10       29.89F
$$
MNZ001>005-007-008-013>017-022>024-027-028-311700-
   Northwest Minnesota

CITY           SKY/WX    TMP DP  RH WIND       PRES   REMARKS
BEMIDJI        RAIN      53  52  95 SE16      29.78F
HALLOCK        CLOUDY    59  57  94 SE13G20   29.68S
ROSEAU         CLOUDY    54  48  82 SE14G20   29.76S
WARROAD        CLOUDY    52  46  82 SE15G25   29.79S
THIEF RVR FALL CLOUDY    59  55  88 SE14      29.73S
CROOKSTON      CLOUDY    63  61  94 SW10      29.71S
FOSSTON        LGT RAIN  57  57 100 S10       29.75S
DETROIT LAKES  CLOUDY    61  55  82 SW10      29.78S
MOORHEAD       CLOUDY    64  55  72 SW16G22   29.76R
PARK RAPIDS    LGT RAIN  57  54  89 SE10      29.78S
MAHNOMEN       CLOUDY    62  58  88 SW18      29.75S
$$
MNZ006-009>011-018-025>026-311700-
   North Central Minnesota

CITY           SKY/WX    TMP DP  RH WIND       PRES   REMARKS
BAUDETTE       CLOUDY    50  47  89 SE17G25   29.82S
FLAG ISLAND    LGT RAIN  52  48  87 E16G24    29.80F
INTL FALLS     RAIN      49  46  90 E16G24    29.89F FOG
WASKISH        CLOUDY    50  48  93 E14G23    29.82R
BIG FORK       RAIN      50  46  87 SE8       29.87S
LONGVILLE      DRIZZLE   52  50  93 SE7       29.83F
GRAND RAPIDS   RAIN      49  48  97 E8        29.88F
CRANE LAKE     LGT RAIN  48  46  93 CALM      29.95S
ORR            DRIZZLE   48  45  87 SE6       29.89S
COOK           LGT RAIN  50  45  81 E6        29.92R
WALKER         DRIZZLE   52  51  96 SE7       29.81S
$$
MNZ012-019>021-037-311700-
   Northeast Minnesota

CITY           SKY/WX    TMP DP  RH WIND       PRES   REMARKS
DULUTH         LGT RAIN  45  42  89 E17G29    29.94F
ELY            LGT RAIN  52  41  66 E14G21    29.95F
HIBBING        RAIN      47  46  97 E8        29.90R FOG
EVELETH        DRIZZLE   50  43  76 SE9       29.93R
DULUTH HARBOR  CLOUDY    43  41  93 NE26G37   29.98S
TWO HARBORS    CLOUDY    46  43  87 NE18G25   29.96F
SILVER BAY     LGT RAIN  45  41  87 NE16G26   30.00F
GRAND MARAIS     N/A     45  37  73 NE18G26   30.08R
G MARAIS ARPRT CLOUDY    48  36  61 E15G23    30.08R
$$
MNZ029>031-032-039>041-046>048-054>057-064-311700-
   West Central Minnesota

CITY           SKY/WX    TMP DP  RH WIND       PRES   REMARKS
FERGUS FALLS   CLOUDY    63  55  77 SW17      29.76S
WHEATON        MOSUNNY   66  54  63 W13G21    29.83R
MORRIS         PTSUNNY   64  55  72 W13       29.82R
ALEXANDRIA     CLOUDY    62  56  80 SW13      29.83R
ELBOW LAKE     CLOUDY    62  56  81 SW14      29.82R
WADENA         CLOUDY    61  57  88 SW12      29.79R
GLENWOOD       CLOUDY    63  57  82 SW16      29.84R
APPLETON       MOSUNNY   66  54  63 W13       29.84R
BENSON         PTSUNNY   66  55  68 W14       29.84R
ORTONVILLE     SUNNY     66  48  52 W14G21    29.83S
MADISON        SUNNY     66  52  59 W15G23    29.85S
WILLMAR        CLOUDY    64  59  82 W14G20    29.86R
$$
MNZ033>034-036-042>043-049>051-058-059-311700-
   Central Minnesota

CITY           SKY/WX    TMP DP  RH WIND       PRES   REMARKS
ST CLOUD       CLOUDY    66  63  90 S13       29.83S
SAUK CENTRE    CLOUDY    63  58  82 SW12      29.83R
PAYNESVILLE    CLOUDY    64  60  86 SW13      29.84S
AITKIN         MIX PCPN  52  46  82 E8        29.84F
PINE RIVER     DRIZZLE   52  52 100 E12       29.85F
BRAINERD       CLOUDY    54  53  97 SE8       29.83S
STAPLES        RAIN      61  61 100 S6        29.79S
LONG PRAIRIE   CLOUDY    63  57  82 S12       29.82R
LITTLE FALLS   CLOUDY    63  61  94 S7        29.82S
LITCHFIELD     CLOUDY    64  63  94 W9        29.86R
BUFFALO        CLOUDY    66  60  79 S7        29.86S
MAPLE LAKE     CLOUDY    68  64  86 S3        29.85F
HUTCHINSON     CLOUDY    67  62  82 SW12      29.86S
$$
MNZ037-044-045-052-053-311700-
   East Central Minnesota

CITY           SKY/WX    TMP DP  RH WIND       PRES   REMARKS
PRINCETON      CLOUDY    66  64  94 S7        29.85S
MORA           RAIN      55  52  88 E3        29.88F
CAMBRIDGE      CLOUDY    66  57  72 SE8       29.84S
RUSH CITY      HVY RAIN  63  60  89 S8        29.87F
MOOSE LAKE     CLOUDY    45  43  93 E7        29.89F
HINCKLEY       CLOUDY    55  54  94 E6        29.88F
CLOQUET        LGT RAIN  45  41  87 E13G23    29.92F
MCGREGOR       CLOUDY    48  46  93 E12G18    29.88F
$$
MNZ071>073-080-081-089-090-097-098-311700-
   Southwest Minnesota

CITY           SKY/WX    TMP DP  RH WIND       PRES   REMARKS
MONTEVIDEO     PTSUNNY   66  59  77 NW10G16   29.87R
GRANITE FALLS  PTSUNNY   66  58  74 SW15G22   29.88S
CANBY          SUNNY     69  54  60 W12G22    29.88S
MARSHALL       CLOUDY    66  54  65 W20       29.87F
REDWOOD FALLS  CLOUDY    65  55  70 W15G24    29.86S
OLIVIA         CLOUDY    70  63  78 W14       29.86R
PIPESTONE      SUNNY     64  52  63 NW18      29.91S
WINDOM         LGT RAIN  63  55  77 CALM      29.91R
WORTHINGTON    CLOUDY    62  56  80 NW12      29.92R
JACKSON        CLOUDY    61  55  82 W9        29.91S
TRACY          CLOUDY    65  57  76 W8        29.89S
SLAYTON        CLOUDY    64  56  76 W18       29.91R
$$
MNZ065>067-074>077-082>085-091>093-311700-
   South Central Minnesota

CITY           SKY/WX    TMP DP  RH WIND       PRES   REMARKS
MANKATO        CLOUDY    66  61  82 SW13      29.89R
NEW ULM        CLOUDY    66  63  88 W18G28    29.87S
ST JAMES       DRIZZLE   61  55  82 S8        29.90R
FAIRMONT       CLOUDY    64  57  77 W10       29.91R
GLENCOE        CLOUDY    68  64  87 SW8       29.85S
OWATONNA       LGT RAIN  70  63  78 SW9       29.90R
WASECA         CLOUDY    64  63  94 SW13      29.90S
ALBERT LEA     PTSUNNY   72  63  73 S9        29.89R
$$
MNZ078>079-086>088-094>096-311700-
   Southeast Minnesota

CITY           SKY/WX    TMP DP  RH WIND       PRES   REMARKS
ROCHESTER      CLOUDY    72  62  71 S17       29.91F
RED WING       CLOUDY    70  61  73 CALM      29.88R
STANTON        LGT RAIN  67  62  83 SW7       29.88S
DODGE CENTER   CLOUDY    72  61  68 S15       29.89F
WINONA         CLOUDY    77  61  57 S5        29.90F
AUSTIN         MOSUNNY   72  63  73 S10       29.90F
PRESTON        CLOUDY    73  59  62 SW13      29.93S
$$
ABBREVIATIONS USED IN REMARKS
   TC - TEMPERATURES IN CELSIUS
  WCI - WIND CHILL INDEX
   HX - HEAT INDEX
  VSB - VISIBILITY
$$




USA.gov is the U.S. government's official web portal to all federal, state and local government web resources and services.